Starlink 6237

operational
NORAD ID: 57055 Int'l Des: 2023-088 Owner: SPXS Country: US Constellation: starlink
LEOCIRCULAR

About Starlink 6237

Description loading...

Live Position

Loading 3D Globe...

Upcoming Passes

Altitude History

Altitude vs Time

uPlot chart will show altitude changes over time

Two-Line Element Set

1 57055U 23088H 25306.09036161 .00000063 00000-0 19718-4 0 9994
2 57055 43.0041 80.9719 0001215 270.5047 89.5656 15.02535521131175
Epoch: Nov 2, 2025 • Age: 22 hours

Current Status

Altitude 558.2 km
Velocity 7.58 km/s
Sub-Earth Point 9.56°N, 35.2°E
Launch Date Jun 22, 2023
Age 2.3 years
Type internet

Technical Details

Classification Payload
Mass 305.00 kg
Dry Mass 290.00 kg
Total Mass 305.00 kg
Length 0.20 m
Diameter 2.80 m
Span 9.00 m
Shape Box + pan
Manufacturer SPXS
Bus Type Starlink
Phase Status In Orbit
Owner/State SPXS/US

Large Constellations

Loading constellations...